Time,TemperatureF,DewpointF,PressureIn,WindDirection,WindDirectionDegrees,WindSpeedMPH,WindSpeedGustMPH,Humidity,HourlyPrecipIn,Conditions,Clouds,dailyrainin,SoftwareType,DateUTC
2013-05-19 00:00:00,67.5,63.8,29.90,North,-999,-999.0,0.0,88,0.00,,---,0.00,VWS V14.01,2013-05-19 04:00:00,
2013-05-19 00:02:00,67.5,63.8,29.90,North,-999,-999.0,0.0,88,0.00,,---,0.00,VWS V14.01,2013-05-19 04:02:00,
2013-05-19 00:04:00,67.5,63.8,29.90,North,-999,-999.0,0.0,88,0.00,,---,0.00,VWS V14.01,2013-05-19 04:04:00,
2013-05-19 00:06:00,67.5,63.8,29.90,North,-999,-999.0,0.0,88,0.00,,---,0.00,VWS V14.01,2013-05-19 04:06:00,
2013-05-19 02:00:00,67.3,63.6,29.89,North,-999,-999.0,0.0,88,0.00,,---,0.00,VWS V14.01,2013-05-19 06:00:00,
2013-05-19 02:06:00,67.3,63.6,29.89,North,-999,-999.0,0.0,88,0.00,,---,0.00,VWS V14.01,2013-05-19 06:06:00,
2013-05-19 03:00:00,66.6,63.3,29.88,North,-999,-999.0,0.0,89,0.07,,---,0.07,VWS V14.01,2013-05-19 07:00:00,
2013-05-19 03:06:00,66.6,63.3,29.88,North,-999,-999.0,0.0,89,0.07,,---,0.07,VWS V14.01,2013-05-19 07:06:00,
2013-05-19 04:00:00,66.4,63.4,29.87,North,-999,-999.0,0.0,90,0.11,,---,0.11,VWS V14.01,2013-05-19 08:00:00,
2013-05-19 04:06:00,66.4,63.4,29.87,North,-999,-999.0,0.0,90,0.04,,---,0.11,VWS V14.01,2013-05-19 08:06:00,
2013-05-19 06:00:00,66.4,63.7,29.89,North,-999,-999.0,0.0,91,0.05,,---,0.12,VWS V14.01,2013-05-19 10:00:00,
2013-05-19 06:05:00,66.4,63.7,29.89,North,-999,-999.0,0.0,91,0.00,,---,0.12,VWS V14.01,2013-05-19 10:05:00,
2013-05-19 07:00:00,66.8,64.1,29.90,North,-999,-999.0,0.0,91,0.00,,---,0.12,VWS V14.01,2013-05-19 11:00:00,
2013-05-19 07:05:00,66.8,64.1,29.90,North,-999,-999.0,0.0,91,0.00,,---,0.12,VWS V14.01,2013-05-19 11:05:00,
2013-05-19 09:00:00,69.1,65.7,29.93,North,-999,-999.0,0.0,89,0.00,,---,0.12,VWS V14.01,2013-05-19 13:00:00,
2013-05-19 09:05:00,69.1,65.7,29.93,North,-999,-999.0,0.0,89,0.00,,---,0.12,VWS V14.01,2013-05-19 13:05:00,
2013-05-19 16:00:00,78.8,66.5,29.86,North,-999,-999.0,0.0,66,0.00,,---,0.12,VWS V14.01,2013-05-19 20:00:00,
2013-05-19 16:06:00,78.8,66.5,29.86,North,-999,-999.0,0.0,66,0.00,,---,0.12,VWS V14.01,2013-05-19 20:06:00,
2013-05-19 18:00:00,79.7,67.3,29.85,North,-999,-999.0,0.0,66,0.00,,---,0.12,VWS V14.01,2013-05-19 22:00:00,
2013-05-19 18:05:00,79.7,67.3,29.85,North,-999,-999.0,0.0,66,0.00,,---,0.12,VWS V14.01,2013-05-19 22:05:00,
2013-05-19 20:00:00,74.2,65.8,29.86,North,-999,-999.0,0.0,75,0.00,,---,0.12,VWS V14.01,2013-05-20 00:00:00,
2013-05-19 20:05:00,74.2,65.8,29.86,North,-999,-999.0,0.0,75,0.00,,---,0.12,VWS V14.01,2013-05-20 00:05:00,
2013-05-19 21:00:00,72.2,65.3,29.86,North,-999,-999.0,0.0,79,0.00,,---,0.12,VWS V14.01,2013-05-20 01:00:00,
2013-05-19 21:05:00,72.2,65.3,29.86,North,-999,-999.0,0.0,79,0.00,,---,0.12,VWS V14.01,2013-05-20 01:05:00,
2013-05-19 23:00:00,67.0,62.7,29.89,North,-999,-999.0,0.0,86,0.00,,---,0.12,VWS V14.01,2013-05-20 03:00:00,
2013-05-19 23:06:00,67.0,62.7,29.89,North,-999,-999.0,0.0,86,0.00,,---,0.12,VWS V14.01,2013-05-20 03:06:00,